Time,TemperatureF,DewpointF,PressureIn,WindDirection,WindDirectionDegrees,WindSpeedMPH,WindSpeedGustMPH,Humidity,HourlyPrecipIn,Conditions,Clouds,dailyrainin,SoftwareType,DateUTC
2013-03-16 00:02:00,51.0,48.0,30.09,North,356,0.0,1.0,89,-99.99,,,-99.99,,2013-03-16 07:02:00,
2013-03-16 00:11:00,51.0,48.0,30.09,North,356,0.0,1.0,89,-99.99,,,-99.99,,2013-03-16 07:11:00,
2013-03-16 00:22:00,51.0,48.0,30.09,North,356,0.0,1.0,89,-99.99,,,-99.99,,2013-03-16 07:22:00,
2013-03-16 00:32:00,51.0,48.0,30.09,NE,55,0.0,1.0,90,-99.99,,,-99.99,,2013-03-16 07:32:00,
2013-03-16 00:42:00,51.0,48.0,30.09,NE,55,0.0,1.0,90,-99.99,,,-99.99,,2013-03-16 07:42:00,
2013-03-16 00:52:00,51.0,48.0,30.09,NE,55,0.0,1.0,90,-99.99,,,-99.99,,2013-03-16 07:52:00,
2013-03-16 01:02:00,50.0,48.0,30.09,SE,136,3.0,7.0,92,-99.99,,,-99.99,,2013-03-16 08:02:00,
2013-03-16 01:12:00,50.0,48.0,30.09,SE,136,3.0,7.0,92,-99.99,,,-99.99,,2013-03-16 08:12:00,
2013-03-16 01:23:00,50.0,48.0,30.09,SSE,165,5.0,10.0,93,-99.99,,,-99.99,,2013-03-16 08:23:00,
2013-03-16 01:32:00,50.0,48.0,30.10,East,90,3.0,6.0,93,-99.99,,,-99.99,,2013-03-16 08:32:00,
2013-03-16 01:41:00,50.0,48.0,30.10,East,90,3.0,6.0,93,-99.99,,,-99.99,,2013-03-16 08:41:00,
2013-03-16 01:52:00,50.0,48.0,30.08,ESE,114,2.0,8.0,94,-99.99,,,-99.99,,2013-03-16 08:52:00,
2013-03-16 02:01:00,50.0,48.0,30.09,East,95,10.0,11.0,94,-99.99,,,-99.99,,2013-03-16 09:01:00,
2013-03-16 02:12:00,50.0,48.0,30.09,East,95,10.0,11.0,94,-99.99,,,-99.99,,2013-03-16 09:12:00,
2013-03-16 02:22:00,50.0,48.0,30.09,SE,136,10.0,10.0,94,-99.99,,,-99.99,,2013-03-16 09:22:00,
2013-03-16 02:32:00,49.0,48.0,30.09,SE,145,5.0,12.0,95,-99.99,,,-99.99,,2013-03-16 09:32:00,
2013-03-16 02:42:00,49.0,48.0,30.09,SE,145,5.0,12.0,95,-99.99,,,-99.99,,2013-03-16 09:42:00,
2013-03-16 02:52:00,49.0,48.0,30.08,SSE,157,3.0,7.0,95,-99.99,,,-99.99,,2013-03-16 09:52:00,
2013-03-16 03:03:00,49.0,48.0,30.08,South,175,3.0,8.0,96,-99.99,,,-99.99,,2013-03-16 10:03:00,
2013-03-16 03:12:00,49.0,48.0,30.08,South,175,3.0,8.0,96,-99.99,,,-99.99,,2013-03-16 10:12:00,
2013-03-16 03:22:00,49.0,48.0,30.08,South,175,3.0,8.0,96,-99.99,,,-99.99,,2013-03-16 10:22:00,
2013-03-16 03:32:00,49.0,48.0,30.08,South,175,3.0,8.0,96,-99.99,,,-99.99,,2013-03-16 10:32:00,
2013-03-16 03:42:00,49.0,48.0,30.08,South,175,3.0,8.0,96,-99.99,,,-99.99,,2013-03-16 10:42:00,
2013-03-16 03:53:00,48.0,47.0,30.07,SE,131,5.0,5.0,96,-99.99,,,-99.99,,2013-03-16 10:53:00,
2013-03-16 04:03:00,48.0,47.0,30.06,ESE,117,0.0,6.0,96,-99.99,,,-99.99,,2013-03-16 11:03:00,
2013-03-16 04:12:00,48.0,47.0,30.06,ESE,117,0.0,6.0,96,-99.99,,,-99.99,,2013-03-16 11:12:00,
2013-03-16 04:21:00,48.0,47.0,30.08,WSW,239,1.0,3.0,96,-99.99,,,-99.99,,2013-03-16 11:21:00,
2013-03-16 04:32:00,48.0,47.0,30.07,WSW,239,0.0,0.0,96,-99.99,,,-99.99,,2013-03-16 11:32:00,
2013-03-16 04:42:00,48.0,47.0,30.07,WSW,239,0.0,0.0,96,-99.99,,,-99.99,,2013-03-16 11:42:00,
2013-03-16 04:51:00,48.0,47.0,30.07,WSW,239,0.0,0.0,96,-99.99,,,-99.99,,2013-03-16 11:51:00,
2013-03-16 05:01:00,48.0,47.0,30.07,ENE,69,1.0,3.0,96,-99.99,,,-99.99,,2013-03-16 12:01:00,
2013-03-16 05:12:00,48.0,47.0,30.07,ENE,69,1.0,3.0,96,-99.99,,,-99.99,,2013-03-16 12:12:00,
2013-03-16 05:22:00,48.0,47.0,30.06,SE,137,2.0,3.0,96,-99.99,,,-99.99,,2013-03-16 12:22:00,
2013-03-16 05:32:00,48.0,47.0,30.05,ESE,113,0.0,3.0,96,-99.99,,,-99.99,,2013-03-16 12:32:00,
2013-03-16 05:42:00,48.0,47.0,30.05,ESE,113,0.0,3.0,96,-99.99,,,-99.99,,2013-03-16 12:42:00,
2013-03-16 05:52:00,48.0,47.0,30.05,ESE,113,0.0,3.0,97,-99.99,,,-99.99,,2013-03-16 12:52:00,
2013-03-16 06:02:00,47.0,46.0,30.06,ESE,113,0.0,1.0,97,-99.99,,,-99.99,,2013-03-16 13:02:00,
2013-03-16 06:11:00,47.0,46.0,30.06,ESE,113,0.0,1.0,97,-99.99,,,-99.99,,2013-03-16 13:11:00,
2013-03-16 06:22:00,47.0,46.0,30.06,ESE,113,0.0,1.0,97,-99.99,,,-99.99,,2013-03-16 13:22:00,
2013-03-16 06:32:00,47.0,46.0,30.05,ENE,58,2.0,3.0,97,-99.99,,,-99.99,,2013-03-16 13:32:00,
2013-03-16 06:41:00,47.0,46.0,30.05,ENE,58,2.0,3.0,97,-99.99,,,-99.99,,2013-03-16 13:41:00,
2013-03-16 06:53:00,47.0,46.0,30.05,ENE,61,1.0,4.0,97,-99.99,,,-99.99,,2013-03-16 13:53:00,
2013-03-16 07:02:00,48.0,47.0,30.05,ENE,66,2.0,5.0,97,-99.99,,,-99.99,,2013-03-16 14:02:00,
2013-03-16 07:11:00,48.0,47.0,30.05,ENE,66,2.0,5.0,97,-99.99,,,-99.99,,2013-03-16 14:11:00,
2013-03-16 07:22:00,48.0,47.0,30.05,NE,47,5.0,14.0,97,-99.99,,,-99.99,,2013-03-16 14:22:00,
2013-03-16 07:31:00,48.0,47.0,30.05,ENE,61,2.0,7.0,97,-99.99,,,-99.99,,2013-03-16 14:31:00,
2013-03-16 07:41:00,48.0,47.0,30.05,ENE,61,2.0,7.0,97,-99.99,,,-99.99,,2013-03-16 14:41:00,
2013-03-16 07:51:00,48.0,47.0,30.06,NE,35,3.0,5.0,97,-99.99,,,-99.99,,2013-03-16 14:51:00,
2013-03-16 08:02:00,48.0,47.0,30.05,ENE,61,6.0,7.0,97,-99.99,,,-99.99,,2013-03-16 15:02:00,
2013-03-16 08:11:00,48.0,47.0,30.05,ENE,61,6.0,7.0,97,-99.99,,,-99.99,,2013-03-16 15:11:00,
2013-03-16 08:22:00,48.0,47.0,30.05,ENE,58,7.0,10.0,97,-99.99,,,-99.99,,2013-03-16 15:22:00,
2013-03-16 08:33:00,48.0,47.0,30.06,NE,49,3.0,7.0,97,-99.99,,,-99.99,,2013-03-16 15:33:00,
2013-03-16 08:42:00,48.0,47.0,30.06,NE,49,3.0,7.0,97,-99.99,,,-99.99,,2013-03-16 15:42:00,
2013-03-16 08:52:00,48.0,47.0,30.06,NE,49,3.0,7.0,97,-99.99,,,-99.99,,2013-03-16 15:52:00,
2013-03-16 09:02:00,48.0,47.0,30.08,NNE,20,0.0,3.0,98,-99.99,,,-99.99,,2013-03-16 16:02:00,
2013-03-16 09:12:00,48.0,47.0,30.08,NNE,20,0.0,3.0,98,-99.99,,,-99.99,,2013-03-16 16:12:00,
2013-03-16 09:22:00,48.0,47.0,30.10,NNW,335,0.0,2.0,98,-99.99,,,-99.99,,2013-03-16 16:22:00,
2013-03-16 09:33:00,48.0,47.0,30.10,NNE,32,1.0,3.0,98,-99.99,,,-99.99,,2013-03-16 16:33:00,
2013-03-16 09:42:00,48.0,47.0,30.10,NNE,32,1.0,3.0,98,-99.99,,,-99.99,,2013-03-16 16:42:00,
2013-03-16 09:52:00,48.0,47.0,30.10,NNE,23,0.0,6.0,98,-99.99,,,-99.99,,2013-03-16 16:52:00,
2013-03-16 10:02:00,49.0,48.0,30.11,NE,52,2.0,3.0,98,-99.99,,,-99.99,,2013-03-16 17:02:00,
2013-03-16 10:12:00,49.0,48.0,30.11,NE,52,2.0,3.0,98,-99.99,,,-99.99,,2013-03-16 17:12:00,
2013-03-16 10:22:00,50.0,49.0,30.10,NE,54,3.0,6.0,98,-99.99,,,-99.99,,2013-03-16 17:22:00,
2013-03-16 10:32:00,50.0,49.0,30.10,NE,55,5.0,6.0,98,-99.99,,,-99.99,,2013-03-16 17:32:00,
2013-03-16 10:42:00,50.0,49.0,30.10,NE,55,5.0,6.0,98,-99.99,,,-99.99,,2013-03-16 17:42:00,
2013-03-16 10:52:00,51.0,50.0,30.10,NNE,17,3.0,8.0,98,-99.99,,,-99.99,,2013-03-16 17:52:00,
2013-03-16 11:02:00,53.0,52.0,30.10,East,86,4.0,7.0,97,-99.99,,,-99.99,,2013-03-16 18:02:00,
2013-03-16 11:12:00,53.0,52.0,30.10,East,86,4.0,7.0,97,-99.99,,,-99.99,,2013-03-16 18:12:00,
2013-03-16 11:22:00,54.0,53.0,30.09,NE,41,6.0,10.0,95,-99.99,,,-99.99,,2013-03-16 18:22:00,
2013-03-16 11:32:00,56.0,52.0,30.09,ENE,59,9.0,10.0,85,-99.99,,,-99.99,,2013-03-16 18:32:00,
2013-03-16 11:42:00,56.0,52.0,30.09,ENE,59,9.0,10.0,85,-99.99,,,-99.99,,2013-03-16 18:42:00,
2013-03-16 11:52:00,56.0,51.0,30.08,NE,44,6.0,10.0,83,-99.99,,,-99.99,,2013-03-16 18:52:00,
2013-03-16 12:01:00,58.0,51.0,30.08,ENE,59,3.0,7.0,78,-99.99,,,-99.99,,2013-03-16 19:01:00,
2013-03-16 12:11:00,58.0,51.0,30.08,ENE,59,3.0,7.0,78,-99.99,,,-99.99,,2013-03-16 19:11:00,
2013-03-16 12:21:00,59.0,51.0,30.08,ESE,121,3.0,6.0,75,-99.99,,,-99.99,,2013-03-16 19:21:00,
2013-03-16 12:32:00,62.0,52.0,30.08,West,275,2.0,8.0,71,-99.99,,,-99.99,,2013-03-16 19:32:00,
2013-03-16 12:42:00,62.0,52.0,30.08,West,275,2.0,8.0,71,-99.99,,,-99.99,,2013-03-16 19:42:00,
2013-03-16 12:52:00,64.0,54.0,30.08,WNW,284,2.0,7.0,69,-99.99,,,-99.99,,2013-03-16 19:52:00,
2013-03-16 13:02:00,60.0,52.0,30.08,SW,229,6.0,13.0,76,-99.99,,,-99.99,,2013-03-16 20:02:00,
2013-03-16 13:11:00,60.0,52.0,30.08,SW,229,6.0,13.0,76,-99.99,,,-99.99,,2013-03-16 20:11:00,
2013-03-16 13:21:00,59.0,52.0,30.09,SSW,209,6.0,11.0,78,-99.99,,,-99.99,,2013-03-16 20:21:00,
2013-03-16 13:32:00,59.0,52.0,30.08,SSE,152,5.0,10.0,79,-99.99,,,-99.99,,2013-03-16 20:32:00,
2013-03-16 13:41:00,59.0,52.0,30.08,SSE,152,5.0,10.0,79,-99.99,,,-99.99,,2013-03-16 20:41:00,
2013-03-16 13:51:00,59.0,52.0,30.08,SSE,152,5.0,10.0,79,-99.99,,,-99.99,,2013-03-16 20:51:00,
2013-03-16 14:02:00,63.0,53.0,30.07,South,182,0.0,4.0,71,-99.99,,,-99.99,,2013-03-16 21:02:00,
2013-03-16 14:12:00,63.0,53.0,30.07,South,182,0.0,4.0,71,-99.99,,,-99.99,,2013-03-16 21:12:00,
2013-03-16 14:22:00,65.0,54.0,30.05,South,185,4.0,6.0,67,-99.99,,,-99.99,,2013-03-16 21:22:00,
2013-03-16 14:32:00,66.0,53.0,30.05,SSE,147,2.0,6.0,63,-99.99,,,-99.99,,2013-03-16 21:32:00,
2013-03-16 14:42:00,66.0,53.0,30.05,SSE,147,2.0,6.0,63,-99.99,,,-99.99,,2013-03-16 21:42:00,
2013-03-16 14:52:00,68.0,54.0,30.04,SSW,193,1.0,6.0,61,-99.99,,,-99.99,,2013-03-16 21:52:00,
2013-03-16 15:03:00,68.0,54.0,30.03,West,270,6.0,16.0,60,-99.99,,,-99.99,,2013-03-16 22:03:00,
2013-03-16 15:12:00,68.0,54.0,30.03,West,270,6.0,16.0,60,-99.99,,,-99.99,,2013-03-16 22:12:00,
2013-03-16 15:22:00,64.0,53.0,30.04,WSW,253,6.0,17.0,67,-99.99,,,-99.99,,2013-03-16 22:22:00,
2013-03-16 15:32:00,61.0,51.0,30.05,SW,219,11.0,14.0,70,-99.99,,,-99.99,,2013-03-16 22:32:00,
2013-03-16 15:42:00,61.0,51.0,30.05,SW,219,11.0,14.0,70,-99.99,,,-99.99,,2013-03-16 22:42:00,
2013-03-16 15:52:00,62.0,52.0,30.05,WSW,237,3.0,12.0,70,-99.99,,,-99.99,,2013-03-16 22:52:00,
2013-03-16 16:02:00,62.0,52.0,30.05,WSW,247,8.0,11.0,69,-99.99,,,-99.99,,2013-03-16 23:02:00,
2013-03-16 16:12:00,62.0,52.0,30.05,WSW,247,8.0,11.0,69,-99.99,,,-99.99,,2013-03-16 23:12:00,
2013-03-16 16:22:00,62.0,52.0,30.05,WSW,247,8.0,11.0,69,-99.99,,,-99.99,,2013-03-16 23:22:00,
2013-03-16 16:32:00,62.0,51.0,30.04,SSW,212,8.0,12.0,68,-99.99,,,-99.99,,2013-03-16 23:32:00,
2013-03-16 16:42:00,62.0,51.0,30.04,SSW,212,8.0,12.0,68,-99.99,,,-99.99,,2013-03-16 23:42:00,
2013-03-16 16:52:00,62.0,51.0,30.04,SSW,212,8.0,12.0,68,-99.99,,,-99.99,,2013-03-16 23:52:00,
2013-03-16 17:01:00,60.0,51.0,30.05,SSE,168,6.0,11.0,71,-99.99,,,-99.99,,2013-03-17 00:01:00,
2013-03-16 17:11:00,60.0,51.0,30.05,SSE,168,6.0,11.0,71,-99.99,,,-99.99,,2013-03-17 00:11:00,
2013-03-16 17:22:00,60.0,51.0,30.05,SSE,168,6.0,11.0,71,-99.99,,,-99.99,,2013-03-17 00:22:00,
2013-03-16 17:32:00,58.0,50.0,30.05,SSE,152,4.0,8.0,74,-99.99,,,-99.99,,2013-03-17 00:32:00,
2013-03-16 17:42:00,58.0,50.0,30.05,SSE,152,4.0,8.0,74,-99.99,,,-99.99,,2013-03-17 00:42:00,
2013-03-16 17:52:00,58.0,50.0,30.06,ESE,121,5.0,12.0,74,-99.99,,,-99.99,,2013-03-17 00:52:00,
2013-03-16 18:02:00,58.0,50.0,30.06,SE,145,4.0,9.0,75,-99.99,,,-99.99,,2013-03-17 01:02:00,
2013-03-16 18:11:00,58.0,50.0,30.06,SE,145,4.0,9.0,75,-99.99,,,-99.99,,2013-03-17 01:11:00,
2013-03-16 18:21:00,57.0,50.0,30.06,SSE,164,2.0,8.0,76,-99.99,,,-99.99,,2013-03-17 01:21:00,
2013-03-16 18:32:00,57.0,50.0,30.06,South,171,3.0,6.0,76,-99.99,,,-99.99,,2013-03-17 01:32:00,
2013-03-16 18:41:00,57.0,50.0,30.06,South,171,3.0,6.0,76,-99.99,,,-99.99,,2013-03-17 01:41:00,
2013-03-16 18:52:00,57.0,50.0,30.06,ESE,116,1.0,7.0,76,-99.99,,,-99.99,,2013-03-17 01:52:00,
2013-03-16 19:02:00,57.0,50.0,30.06,SE,127,1.0,5.0,77,-99.99,,,-99.99,,2013-03-17 02:02:00,
2013-03-16 19:11:00,57.0,50.0,30.06,SE,127,1.0,5.0,77,-99.99,,,-99.99,,2013-03-17 02:11:00,
2013-03-16 19:21:00,56.0,49.0,30.06,SSE,158,2.0,5.0,78,-99.99,,,-99.99,,2013-03-17 02:21:00,
2013-03-16 19:32:00,56.0,49.0,30.06,SE,140,2.0,5.0,78,-99.99,,,-99.99,,2013-03-17 02:32:00,
2013-03-16 19:42:00,56.0,49.0,30.06,SE,140,2.0,5.0,78,-99.99,,,-99.99,,2013-03-17 02:42:00,
2013-03-16 19:52:00,55.0,48.0,30.06,SE,131,1.0,5.0,78,-99.99,,,-99.99,,2013-03-17 02:52:00,
2013-03-16 20:02:00,55.0,49.0,30.06,ESE,109,1.0,3.0,79,-99.99,,,-99.99,,2013-03-17 03:02:00,
2013-03-16 20:11:00,55.0,49.0,30.06,ESE,109,1.0,3.0,79,-99.99,,,-99.99,,2013-03-17 03:11:00,
2013-03-16 20:21:00,54.0,48.0,30.07,ESE,110,2.0,3.0,80,-99.99,,,-99.99,,2013-03-17 03:21:00,
2013-03-16 20:33:00,53.0,47.0,30.07,East,86,1.0,8.0,81,-99.99,,,-99.99,,2013-03-17 03:33:00,
2013-03-16 20:42:00,53.0,47.0,30.07,East,86,1.0,8.0,81,-99.99,,,-99.99,,2013-03-17 03:42:00,
2013-03-16 20:52:00,52.0,47.0,30.07,ESE,104,2.0,8.0,82,-99.99,,,-99.99,,2013-03-17 03:52:00,
2013-03-16 21:02:00,52.0,47.0,30.08,NE,51,3.0,6.0,84,-99.99,,,-99.99,,2013-03-17 04:02:00,
2013-03-16 21:12:00,52.0,47.0,30.08,NE,51,3.0,6.0,84,-99.99,,,-99.99,,2013-03-17 04:12:00,
2013-03-16 21:22:00,51.0,46.0,30.08,East,93,3.0,7.0,84,-99.99,,,-99.99,,2013-03-17 04:22:00,
2013-03-16 21:32:00,51.0,47.0,30.09,East,97,1.0,6.0,85,-99.99,,,-99.99,,2013-03-17 04:32:00,
2013-03-16 21:42:00,51.0,47.0,30.09,East,97,1.0,6.0,85,-99.99,,,-99.99,,2013-03-17 04:42:00,
2013-03-16 21:52:00,51.0,47.0,30.09,East,82,3.0,10.0,85,-99.99,,,-99.99,,2013-03-17 04:52:00,
2013-03-16 22:02:00,51.0,47.0,30.09,ENE,62,2.0,7.0,86,-99.99,,,-99.99,,2013-03-17 05:02:00,
2013-03-16 22:11:00,51.0,47.0,30.09,ENE,62,2.0,7.0,86,-99.99,,,-99.99,,2013-03-17 05:11:00,
2013-03-16 22:21:00,51.0,47.0,30.10,ESE,106,1.0,6.0,86,-99.99,,,-99.99,,2013-03-17 05:21:00,
2013-03-16 22:32:00,50.0,46.0,30.11,ESE,116,3.0,5.0,85,-99.99,,,-99.99,,2013-03-17 05:32:00,
2013-03-16 22:42:00,50.0,46.0,30.11,ESE,116,3.0,5.0,85,-99.99,,,-99.99,,2013-03-17 05:42:00,
2013-03-16 23:01:00,50.0,46.0,30.11,ESE,107,1.0,3.0,85,-99.99,,,-99.99,,2013-03-17 06:01:00,
2013-03-16 23:12:00,50.0,46.0,30.11,ESE,107,1.0,3.0,85,-99.99,,,-99.99,,2013-03-17 06:12:00,
2013-03-16 23:21:00,50.0,46.0,30.11,ESE,107,1.0,3.0,85,-99.99,,,-99.99,,2013-03-17 06:21:00,
2013-03-16 23:31:00,50.0,46.0,30.11,ESE,106,1.0,5.0,86,-99.99,,,-99.99,,2013-03-17 06:31:00,
2013-03-16 23:42:00,50.0,46.0,30.11,ESE,106,1.0,5.0,86,-99.99,,,-99.99,,2013-03-17 06:42:00,
2013-03-16 23:52:00,50.0,46.0,30.11,NE,34,2.0,5.0,86,-99.99,,,-99.99,,2013-03-17 06:52:00,